Back to catalog

SPOT 6

AliveScienceSSO
NORAD 38755·PAYLOAD·🇫🇷 France

Launched Sep 9, 2012 from Satish Dhawan Space Centre

Loading…

Next Passes (next 24 hours)

TLE

FreshSource: Space-Track

Epoch: Sep 14, 2026, 15:42 UTC

1 38755U 12047A   26257.65477061  .00000147  00000-0  41489-4 0  9992
2 38755  98.2041 323.8781 0001615  85.8775 274.2609 14.58562644746090

Track SPOT 6 in real time with AllMySat

Download on the App Store